CZ-6A DEB, 61473

Orbit data source: Space-Track

CZ-6A DEB, 61473 is space debris in LEO originally from a launch on Tue, 06 Aug 2024 UTC launched from the Taiyaun Space Center, China (TSC). Debris objects in space refer to the collection of defunct objects orbiting the Earth. Examples of debris include non-operational satellites, rocket bodies, and fragments generated from explosions, collisions, or faulty payload assembly.

Loading next visibility...
Identifier
61473, 2024-140AAF
Orbit
LEO
Country
Flag of CNCN / PRC
Related business
Manufacturer
SAST
Mission
Spacecraft
Bus & Motor
Unknown
Mass
Unknown
Launch date (UTC)
2024-08-06 (1 year ago)
Launch vehicle
Unknown
Launch site
Taiyaun Space Center, China (TSC)
Object type
Payload
Rocket body
Debris
Shape & HBR
Unknown
Radar Cross Section
Small (<0.1 m²)

Expand to show TLE details & history
Last TLE update: 19 hours ago

TLE from 19 hours ago
0 CZ-6A DEB
1 61473U 24140AAF 25261.05465404  .02300048  33469-2  71917-2 0  9997
2 61473  88.4267 278.7477 0020026 240.9820 118.9458 15.92004603 57171
Epoch: 2025-09-18T01:18Z
TLE epoch observation values (Epoch: 2025-09-18T01:18:42.109Z)
Latitude
0.00002°
Longitude
-98.14951°
Altitude
306.457 km
Speed
7.72 km/s
True Right ascension
18h 34m 59s
True Declination
0° 00' 00"
Sunlit
Object was in daylight at epoch
Visualization orbit readout
Latitude
Unknown
Longitude
Unknown
Altitude
Unknown
Speed
Unknown
Apparent Right ascension
Unknown
Apparent Declination
Unknown
Sunlit
N/A
Visualization observer readout
Local Sidereal Time
13:00:58
Azimuth
Unknown
Elevation
Unknown
Doppler factor
Unknown
Orbital elements
Apogee altitude
306.748 km
Perigee altitude
280.027 km
Semi-major axis
6,671.524 km
Eccentricity
0.002
Inclination
88.4267°
RAAN
278.7477°
Arg. of periapsis
240.982°
True anomaly
119.14637°
Mean anomaly
118.9458°
Eccentric anomaly
119.04611°
Mean motion
3.98296 °/min
Orbital period
90.39 mins
BSTAR
0.0071917
Loading maneuver chart data...
Computing Atmospheric mass density...
Loading historical data...
Loading historical data...
Loading historical data...
Loading historical data...
Loading historical data...
Loading historical data...
Loading historical data...

Documentation

Showing up to 5 results
|